• In Kazakhstan
  • List of Countries
  • For 7 days
  • Water Temperature
  • Weather Map
  • News
  • Weather Widgets
  • user-avatar
    Login

    Hourly Weather Sarajevo

    Today, 27 February, Thursday

    Time Temperature Precipitation Wind Pressure Humidity
    00:00 +1°C° 1.5 mm 3 mps 676 mmHg 95%
    01:00 0°C° 0 mm 3 mps 675 mmHg 94%
    02:00 -1°C° 3.1 mm 3 mps 675 mmHg 94%
    03:00 -3°C° 3.1 mm 4 mps 675 mmHg 94%
    04:00 -3°C° 3.1 mm 4 mps 675 mmHg 94%
    05:00 -4°C° 1.1 mm 4 mps 676 mmHg 94%
    06:00 -4°C° 1.1 mm 4 mps 677 mmHg 93%
    07:00 -4°C° 1.1 mm 4 mps 678 mmHg 93%
    08:00 -3°C° 0.3 mm 4 mps 679 mmHg 91%
    09:00 -3°C° 0.3 mm 4 mps 680 mmHg 89%
    10:00 -2°C° 0.3 mm 4 mps 681 mmHg 87%
    11:00 -1°C° 0.2 mm 4 mps 681 mmHg 85%
    12:00 0°C° 0.2 mm 3 mps 682 mmHg 83%
    13:00 0°C° 0.2 mm 3 mps 682 mmHg 80%
    14:00 +1°C° 0 mm 2 mps 682 mmHg 79%
    15:00 +2°C° 0 mm 1 mps 682 mmHg 78%
    16:00 +3°C° 0 mm 1 mps 682 mmHg 76%
    17:00 +1°C° 0 mm 1 mps 682 mmHg 79%
    18:00 0°C° 0 mm 1 mps 682 mmHg 81%
    19:00 -2°C° 0 mm 1 mps 682 mmHg 83%
    20:00 -4°C° 0 mm 2 mps 682 mmHg 84%
    21:00 -3°C° 0 mm 2 mps 682 mmHg 85%
    22:00 -3°C° 0 mm 2 mps 682 mmHg 86%
    23:00 -2°C° 0 mm 3 mps 681 mmHg 86%

    Tomorrow, 28 February, Friday

    Time Temperature Precipitation Wind Pressure Humidity
    00:00 -2°C° 0 mm 3 mps 681 mmHg 85%
    01:00 -3°C° 0 mm 4 mps 681 mmHg 85%
    02:00 -2°C° 0.5 mm 4 mps 680 mmHg 89%
    03:00 -2°C° 0.5 mm 4 mps 680 mmHg 92%
    04:00 -2°C° 0.5 mm 4 mps 679 mmHg 96%
    05:00 -1°C° 2.8 mm 3 mps 679 mmHg 96%
    06:00 +1°C° 2.8 mm 2 mps 680 mmHg 97%
    07:00 +1°C° 2.8 mm 2 mps 680 mmHg 98%
    08:00 +1°C° 2.8 mm 2 mps 680 mmHg 96%
    09:00 +2°C° 2.8 mm 2 mps 681 mmHg 94%
    10:00 +2°C° 2.8 mm 2 mps 682 mmHg 92%
    11:00 +2°C° 0.1 mm 2 mps 682 mmHg 90%
    12:00 +2°C° 0.1 mm 3 mps 683 mmHg 88%
    13:00 +2°C° 0.1 mm 3 mps 684 mmHg 86%
    14:00 +2°C° 0.1 mm 3 mps 685 mmHg 85%
    15:00 +1°C° 0.1 mm 3 mps 685 mmHg 83%
    16:00 +1°C° 0.1 mm 3 mps 686 mmHg 82%
    17:00 -1°C° 0 mm 2 mps 686 mmHg 83%
    18:00 -2°C° 0 mm 2 mps 687 mmHg 84%
    19:00 -4°C° 0 mm 2 mps 687 mmHg 85%
    20:00 -4°C° 0 mm 2 mps 688 mmHg 86%
    21:00 -5°C° 0 mm 2 mps 688 mmHg 87%
    22:00 -5°C° 0 mm 2 mps 689 mmHg 88%
    23:00 -5°C° 0 mm 2 mps 689 mmHg 89%

    Day after tomorrow, 29 February, Saturday

    Time Temperature Precipitation Wind Pressure Humidity
    00:00 -4°C° 0 mm 1 mps 689 mmHg 90%
    01:00 -4°C° 0 mm 1 mps 689 mmHg 91%
    02:00 -4°C° 0 mm 1 mps 688 mmHg 91%
    03:00 -4°C° 0 mm 1 mps 688 mmHg 90%
    04:00 -6°C° 0 mm 1 mps 688 mmHg 90%
    05:00 -6°C° 0 mm 1 mps 688 mmHg 87%
    06:00 -4°C° 0 mm 1 mps 688 mmHg 84%
    07:00 -4°C° 0 mm 1 mps 688 mmHg 81%
    08:00 -2°C° 0 mm 1 mps 688 mmHg 79%
    09:00 0°C° 0 mm 1 mps 688 mmHg 77%
    10:00 +3°C° 0 mm 1 mps 688 mmHg 75%
    11:00 +3°C° 0 mm 1 mps 688 mmHg 78%
    12:00 +3°C° 0 mm 2 mps 688 mmHg 81%
    13:00 +3°C° 0 mm 2 mps 687 mmHg 84%
    14:00 +3°C° 0 mm 2 mps 687 mmHg 84%
    15:00 +3°C° 0 mm 2 mps 686 mmHg 83%
    16:00 +3°C° 0 mm 2 mps 686 mmHg 83%
    17:00 +2°C° 0 mm 2 mps 686 mmHg 82%
    18:00 +1°C° 0 mm 2 mps 686 mmHg 82%
    19:00 -1°C° 0 mm 2 mps 685 mmHg 81%
    20:00 -1°C° 0 mm 2 mps 685 mmHg 80%
    21:00 -1°C° 0 mm 3 mps 685 mmHg 78%
    22:00 -1°C° 0 mm 3 mps 685 mmHg 77%
    23:00 -1°C° 0 mm 3 mps 685 mmHg 76%

    1 March, Sunday

    Time Temperature Precipitation Wind Pressure Humidity
    00:00 -1°C° 0 mm 3 mps 685 mmHg 75%
    01:00 -1°C° 0 mm 3 mps 685 mmHg 73%
    02:00 -1°C° 0 mm 3 mps 685 mmHg 75%
    03:00 0°C° 0 mm 3 mps 685 mmHg 77%
    04:00 0°C° 0 mm 3 mps 684 mmHg 79%
    05:00 0°C° 0 mm 3 mps 684 mmHg 82%
    06:00 +2°C° 0 mm 2 mps 684 mmHg 86%
    07:00 +2°C° 0 mm 2 mps 684 mmHg 89%
    08:00 +3°C° 0 mm 2 mps 684 mmHg 92%
    09:00 +2°C° 0 mm 3 mps 684 mmHg 94%
    10:00 +3°C° 0 mm 3 mps 684 mmHg 97%
    11:00 +3°C° 0 mm 3 mps 684 mmHg 97%
    12:00 +3°C° 0 mm 3 mps 683 mmHg 97%
    13:00 +3°C° 0 mm 3 mps 683 mmHg 98%
    14:00 +3°C° 0.8 mm 3 mps 682 mmHg 98%
    15:00 +3°C° 0.8 mm 3 mps 682 mmHg 98%
    16:00 +3°C° 0.8 mm 3 mps 681 mmHg 99%
    17:00 +4°C° 1.6 mm 3 mps 681 mmHg 99%
    18:00 +4°C° 1.6 mm 3 mps 681 mmHg 99%
    19:00 +4°C° 1.6 mm 4 mps 682 mmHg 99%
    20:00 +4°C° 1.4 mm 4 mps 681 mmHg 99%
    21:00 +5°C° 1.4 mm 4 mps 681 mmHg 99%
    22:00 +5°C° 1.4 mm 4 mps 681 mmHg 98%
    23:00 +5°C° 1.9 mm 4 mps 680 mmHg 98%

    2 March, Monday

    Time Temperature Precipitation Wind Pressure Humidity
    00:00 +5°C° 1.9 mm 4 mps 679 mmHg 98%
    01:00 +5°C° 1.9 mm 4 mps 679 mmHg 98%
    02:00 +5°C° 4 mm 5 mps 678 mmHg 98%
    03:00 +5°C° 4 mm 5 mps 678 mmHg 98%
    04:00 +5°C° 4 mm 5 mps 677 mmHg 98%
    05:00 +4°C° 2.5 mm 6 mps 677 mmHg 98%
    06:00 +4°C° 2.5 mm 7 mps 677 mmHg 97%
    07:00 +4°C° 2.5 mm 8 mps 677 mmHg 97%
    08:00 +4°C° 1.5 mm 8 mps 677 mmHg 96%
    09:00 +4°C° 1.5 mm 8 mps 677 mmHg 96%
    10:00 +2°C° 1.5 mm 9 mps 677 mmHg 95%
    11:00 +4°C° 0.4 mm 8 mps 678 mmHg 91%
    12:00 +4°C° 0.4 mm 7 mps 678 mmHg 88%
    13:00 +5°C° 0.4 mm 6 mps 678 mmHg 84%
    14:00 +5°C° 0.1 mm 6 mps 679 mmHg 83%
    15:00 +6°C° 0.1 mm 5 mps 679 mmHg 82%
    16:00 +6°C° 0.1 mm 5 mps 679 mmHg 80%
    17:00 +5°C° 0 mm 4 mps 679 mmHg 83%
    18:00 +3°C° 0 mm 3 mps 679 mmHg 86%
    19:00 +3°C° 0 mm 2 mps 680 mmHg 89%
    20:00 +3°C° 0 mm 2 mps 680 mmHg 90%
    21:00 +3°C° 0 mm 3 mps 680 mmHg 92%
    22:00 +3°C° 0 mm 3 mps 680 mmHg 93%
    23:00 +3°C° 0.1 mm 3 mps 679 mmHg 94%

    3 March, Tuesday

    Time Temperature Precipitation Wind Pressure Humidity
    00:00 +3°C° 0.1 mm 3 mps 678 mmHg 94%
    01:00 +4°C° 0.1 mm 3 mps 678 mmHg 95%
    02:00 +4°C° 0.4 mm 3 mps 677 mmHg 95%
    03:00 +4°C° 0.4 mm 3 mps 676 mmHg 96%
    04:00 +4°C° 0.4 mm 4 mps 676 mmHg 96%
    05:00 +4°C° 1.1 mm 3 mps 676 mmHg 96%
    06:00 +5°C° 1.1 mm 3 mps 675 mmHg 97%
    07:00 +5°C° 1.1 mm 3 mps 675 mmHg 98%
    08:00 +5°C° 0.8 mm 3 mps 675 mmHg 96%
    09:00 +7°C° 0.8 mm 3 mps 675 mmHg 95%
    10:00 +7°C° 0.8 mm 3 mps 676 mmHg 94%
    11:00 +8°C° 0.5 mm 3 mps 676 mmHg 90%
    12:00 +9°C° 0.5 mm 3 mps 676 mmHg 86%
    13:00 +9°C° 0.5 mm 3 mps 676 mmHg 82%
    14:00 +9°C° 0.4 mm 2 mps 676 mmHg 84%
    15:00 +8°C° 0.4 mm 2 mps 675 mmHg 86%
    16:00 +8°C° 0.4 mm 1 mps 675 mmHg 89%
    17:00 +8°C° 0.1 mm 1 mps 675 mmHg 90%
    18:00 +7°C° 0.1 mm 1 mps 676 mmHg 91%
    19:00 +6°C° 0.1 mm 1 mps 676 mmHg 92%
    20:00 +6°C° 0 mm 1 mps 676 mmHg 92%
    21:00 +5°C° 0 mm 1 mps 676 mmHg 91%
    22:00 +5°C° 0 mm 1 mps 677 mmHg 91%
    23:00 +5°C° 0 mm 1 mps 677 mmHg 91%
    Show more